When you browse on this site, cookies collect data to enhance your experience and personalize the content and advertising you see.
Visit our Privacy Policy to learn more. By continuing to use the site, you agree to this use of cookies and data.
  • In Hungary
  • List of Countries
  • For 7 days
  • Water Temperature
  • Satellite Maps
  • Weather Map
  • News
  • Weather Widgets
  • user-avatar
    Login

    Hourly Weather Collesalvetti

    Today, 16 January, Wednesday

    Time Temperature Precipitation Wind Pressure Humidity
    00:00 +8°C° 0 mm 2 mps 763 mmHg 65%
    01:00 +8°C° 0 mm 2 mps 763 mmHg 65%
    02:00 +8°C° 0 mm 2 mps 763 mmHg 66%
    03:00 +8°C° 0 mm 2 mps 763 mmHg 67%
    04:00 +8°C° 0 mm 2 mps 763 mmHg 68%
    05:00 +7°C° 0 mm 2 mps 763 mmHg 68%
    06:00 +6°C° 0 mm 2 mps 763 mmHg 69%
    07:00 +5°C° 0 mm 3 mps 763 mmHg 68%
    08:00 +5°C° 0 mm 3 mps 763 mmHg 65%
    09:00 +7°C° 0 mm 3 mps 763 mmHg 61%
    10:00 +7°C° 0 mm 3 mps 763 mmHg 58%
    11:00 +9°C° 0 mm 3 mps 763 mmHg 58%
    12:00 +10°C° 0 mm 3 mps 763 mmHg 57%
    13:00 +13°C° 0 mm 2 mps 763 mmHg 56%
    14:00 +13°C° 0 mm 2 mps 762 mmHg 61%
    15:00 +13°C° 0 mm 2 mps 762 mmHg 65%
    16:00 +13°C° 0 mm 2 mps 762 mmHg 69%
    17:00 +10°C° 0 mm 2 mps 762 mmHg 73%
    18:00 +9°C° 0 mm 2 mps 761 mmHg 77%
    19:00 +8°C° 0 mm 2 mps 761 mmHg 80%
    20:00 +8°C° 0 mm 2 mps 761 mmHg 83%
    21:00 +8°C° 0 mm 2 mps 762 mmHg 86%
    22:00 +7°C° 0 mm 2 mps 762 mmHg 88%
    23:00 +8°C° 0 mm 2 mps 761 mmHg 88%

    Tomorrow, 17 January, Thursday

    Time Temperature Precipitation Wind Pressure Humidity
    00:00 +8°C° 0 mm 2 mps 761 mmHg 88%
    01:00 +8°C° 0 mm 2 mps 761 mmHg 89%
    02:00 +8°C° 0 mm 2 mps 761 mmHg 90%
    03:00 +8°C° 0 mm 2 mps 760 mmHg 91%
    04:00 +8°C° 0 mm 2 mps 760 mmHg 92%
    05:00 +7°C° 0 mm 2 mps 760 mmHg 92%
    06:00 +7°C° 0 mm 2 mps 759 mmHg 93%
    07:00 +7°C° 0 mm 2 mps 759 mmHg 93%
    08:00 +8°C° 0 mm 2 mps 759 mmHg 90%
    09:00 +8°C° 0 mm 2 mps 759 mmHg 88%
    10:00 +9°C° 0 mm 2 mps 759 mmHg 85%
    11:00 +10°C° 0 mm 2 mps 759 mmHg 81%
    12:00 +12°C° 0 mm 2 mps 758 mmHg 76%
    13:00 +13°C° 0 mm 2 mps 758 mmHg 71%
    14:00 +13°C° 0.1 mm 2 mps 758 mmHg 73%
    15:00 +13°C° 0.1 mm 2 mps 757 mmHg 75%
    16:00 +12°C° 0.1 mm 2 mps 757 mmHg 77%
    17:00 +12°C° 0.2 mm 2 mps 757 mmHg 80%
    18:00 +10°C° 0.2 mm 2 mps 757 mmHg 83%
    19:00 +9°C° 0.2 mm 2 mps 757 mmHg 86%
    20:00 +9°C° 0.2 mm 2 mps 757 mmHg 87%
    21:00 +9°C° 0.2 mm 2 mps 757 mmHg 89%
    22:00 +9°C° 0.2 mm 2 mps 757 mmHg 90%
    23:00 +8°C° 0.2 mm 2 mps 757 mmHg 90%

    Day after tomorrow, 18 January, Friday

    Time Temperature Precipitation Wind Pressure Humidity
    00:00 +8°C° 0.2 mm 3 mps 757 mmHg 91%
    01:00 +8°C° 0.2 mm 3 mps 757 mmHg 92%
    02:00 +8°C° 0.4 mm 3 mps 757 mmHg 92%
    03:00 +8°C° 0.4 mm 3 mps 756 mmHg 92%
    04:00 +8°C° 0.4 mm 3 mps 756 mmHg 92%
    05:00 +8°C° 0.4 mm 2 mps 756 mmHg 92%
    06:00 +8°C° 0.4 mm 2 mps 756 mmHg 92%
    07:00 +8°C° 0.4 mm 2 mps 757 mmHg 93%
    08:00 +9°C° 0.1 mm 2 mps 757 mmHg 91%
    09:00 +9°C° 0.1 mm 2 mps 757 mmHg 89%
    10:00 +10°C° 0.1 mm 2 mps 758 mmHg 87%
    11:00 +12°C° 0.1 mm 2 mps 758 mmHg 82%
    12:00 +13°C° 0.1 mm 1 mps 758 mmHg 77%
    13:00 +14°C° 0.1 mm 1 mps 758 mmHg 73%
    14:00 +14°C° 0.4 mm 1 mps 758 mmHg 74%
    15:00 +13°C° 0.4 mm 1 mps 758 mmHg 75%
    16:00 +13°C° 0.4 mm 1 mps 758 mmHg 76%
    17:00 +12°C° 0.5 mm 2 mps 758 mmHg 80%
    18:00 +10°C° 0.5 mm 2 mps 758 mmHg 83%
    19:00 +10°C° 0.5 mm 2 mps 758 mmHg 86%
    20:00 +9°C° 0.4 mm 2 mps 759 mmHg 88%
    21:00 +9°C° 0.4 mm 2 mps 759 mmHg 89%
    22:00 +10°C° 0.4 mm 1 mps 759 mmHg 91%
    23:00 +10°C° 0.2 mm 1 mps 759 mmHg 91%

    19 January, Saturday

    Time Temperature Precipitation Wind Pressure Humidity
    00:00 +10°C° 0.2 mm 1 mps 759 mmHg 91%
    01:00 +9°C° 0.2 mm 1 mps 759 mmHg 91%
    02:00 +9°C° 0.2 mm 1 mps 759 mmHg 90%
    03:00 +9°C° 0.2 mm 1 mps 758 mmHg 90%
    04:00 +9°C° 0.2 mm 1 mps 758 mmHg 90%
    05:00 +9°C° 0.3 mm 1 mps 758 mmHg 90%
    06:00 +9°C° 0.3 mm 1 mps 758 mmHg 90%
    07:00 +8°C° 0.3 mm 1 mps 758 mmHg 91%
    08:00 +9°C° 0.1 mm 1 mps 758 mmHg 87%
    09:00 +10°C° 0.1 mm 1 mps 758 mmHg 83%
    10:00 +11°C° 0.1 mm 1 mps 758 mmHg 79%
    11:00 +10°C° 0.2 mm 2 mps 758 mmHg 75%
    12:00 +10°C° 0.2 mm 2 mps 758 mmHg 71%
    13:00 +11°C° 0.2 mm 3 mps 758 mmHg 68%
    14:00 +12°C° 0.1 mm 2 mps 758 mmHg 70%
    15:00 +10°C° 0.1 mm 2 mps 757 mmHg 73%
    16:00 +11°C° 0.1 mm 1 mps 757 mmHg 75%
    17:00 +10°C° 0.1 mm 1 mps 757 mmHg 78%
    18:00 +9°C° 0.1 mm 1 mps 757 mmHg 81%
    19:00 +9°C° 0.1 mm 1 mps 757 mmHg 85%
    20:00 +8°C° 0.1 mm 1 mps 757 mmHg 85%
    21:00 +8°C° 0.1 mm 1 mps 758 mmHg 86%
    22:00 +8°C° 0.1 mm 1 mps 758 mmHg 86%
    23:00 +8°C° 0 mm 1 mps 758 mmHg 86%

    20 January, Sunday

    Time Temperature Precipitation Wind Pressure Humidity
    00:00 +7°C° 0 mm 1 mps 758 mmHg 85%
    01:00 +7°C° 0 mm 1 mps 758 mmHg 85%
    02:00 +7°C° 0 mm 1 mps 757 mmHg 86%
    03:00 +6°C° 0 mm 1 mps 757 mmHg 87%
    04:00 +6°C° 0 mm 1 mps 757 mmHg 88%
    05:00 +5°C° 0 mm 2 mps 757 mmHg 88%
    06:00 +5°C° 0 mm 2 mps 757 mmHg 89%
    07:00 +5°C° 0 mm 2 mps 757 mmHg 89%
    08:00 +6°C° 0 mm 2 mps 757 mmHg 86%
    09:00 +6°C° 0 mm 2 mps 757 mmHg 84%
    10:00 +7°C° 0 mm 2 mps 758 mmHg 81%
    11:00 +8°C° 0 mm 2 mps 757 mmHg 76%
    12:00 +9°C° 0 mm 3 mps 757 mmHg 72%
    13:00 +10°C° 0 mm 3 mps 757 mmHg 68%
    14:00 +10°C° 0 mm 3 mps 757 mmHg 69%
    15:00 +10°C° 0 mm 3 mps 757 mmHg 71%
    16:00 +10°C° 0 mm 3 mps 756 mmHg 72%
    17:00 +9°C° 0.1 mm 3 mps 756 mmHg 75%
    18:00 +9°C° 0.1 mm 3 mps 757 mmHg 78%
    19:00 +8°C° 0.1 mm 3 mps 757 mmHg 80%
    20:00 +8°C° 0.1 mm 3 mps 757 mmHg 82%
    21:00 +7°C° 0.1 mm 4 mps 757 mmHg 83%
    22:00 +6°C° 0.1 mm 4 mps 757 mmHg 85%
    23:00 +6°C° 0.3 mm 4 mps 757 mmHg 86%

    21 January, Monday

    Time Temperature Precipitation Wind Pressure Humidity
    00:00 +7°C° 0.3 mm 4 mps 756 mmHg 86%
    01:00 +7°C° 0.3 mm 5 mps 756 mmHg 87%
    02:00 +7°C° 1.7 mm 5 mps 756 mmHg 88%
    03:00 +7°C° 1.7 mm 5 mps 756 mmHg 89%
    04:00 +7°C° 1.7 mm 6 mps 755 mmHg 90%
    05:00 +7°C° 3.6 mm 5 mps 755 mmHg 91%
    06:00 +7°C° 3.6 mm 5 mps 755 mmHg 92%
    07:00 +7°C° 3.6 mm 4 mps 755 mmHg 92%
    08:00 +7°C° 3.4 mm 4 mps 755 mmHg 92%
    09:00 +7°C° 3.4 mm 4 mps 755 mmHg 92%
    10:00 +7°C° 3.4 mm 5 mps 755 mmHg 91%
    11:00 +7°C° 3 mm 5 mps 755 mmHg 90%
    12:00 +8°C° 3 mm 5 mps 755 mmHg 88%
    13:00 +8°C° 3 mm 5 mps 755 mmHg 86%
    14:00 +8°C° 1.9 mm 5 mps 755 mmHg 85%
    15:00 +9°C° 1.9 mm 5 mps 755 mmHg 83%
    16:00 +9°C° 1.9 mm 5 mps 755 mmHg 81%
    17:00 +9°C° 2 mm 5 mps 755 mmHg 82%
    18:00 +8°C° 2 mm 5 mps 755 mmHg 83%
    19:00 +8°C° 2 mm 4 mps 755 mmHg 84%
    20:00 +8°C° 0.9 mm 4 mps 755 mmHg 85%
    21:00 +7°C° 0.9 mm 4 mps 755 mmHg 85%
    22:00 +8°C° 0.9 mm 3 mps 755 mmHg 86%
    23:00 +8°C° 1.8 mm 3 mps 755 mmHg 87%
    Show more